FENGYUN 1C DEB

Satellite information

Favourite Embed

Satellite Type and Status

DEBRISIN ORBIT

Key statistics

Satellite FENGYUN 1C DEB at a glance.

Uptime

9609

Days in orbit

Revolutions

≈ 14.4

Per day

Orbit

SSO

Sun Synchronous Orbit

Inclination

99.0

Latest

Satellite identification and parameters

Extended collection of information and parameters for FENGYUN 1C DEB.

Object identification

Identified? True

Debris? True

Object name: FENGYUN 1C DEB

International designator: 1999-025EFM

Object number (NORAD): 37077

Object ID (CCSDS): 37077

Country: PEOPLES REPUBLIC OF CHINA (PRC)

Current information (Y/N): Y

RCS size: SMALL

Orbital parameters

Period: 99.944 minutes

Inclination: 99.0464 deg

SMA: 7133.978 km

Apoapsis: 823.977 km

Periapsis: 687.708 km

RAAN: 307.3957 deg

Eccentricy: 0.00955069

Argument of periapsis: 288.1492 deg

Mean anomaly: 70.9314 deg

Mean motion: 14.40804829 rev/day

Mean motion (dot): 0.00000718 rev/day2

B* drag term: 0.00022829469 1/REarth

Two-line elements (TLE)

Creation date: Aug. 26, 2025, 10:27 p.m.

Reference frame: TEME

Reference center: EARTH

Epoch: Aug. 26, 2025, 10:13 a.m. UTC

TLE line 0: 0 FENGYUN 1C DEB

TLE line 1: 1 37077U 99025EFM 25238.42598211 .00000718 00000-0 22829-3 0 9993

TLE line 2: 2 37077 99.0464 307.3957 0095507 288.1492 70.9314 14.40804829833954

Live tracking on map

Real-time ground track for satellite FENGYUN 1C DEB.

In-orbit conjunctions

A list of the most updated potential collisions computed for object FENGYUN 1C DEB.

Target Orbit TCA Probability of collision Miss distance Type
COSMOS 1992 LEO 2025-05-26 04:31:23 0.0006102453 492.0 (m) PAYLOAD
IRS B3 SSO 2024-07-13 12:16:54 0.0006034823 71.0 (m) PAYLOAD

Associated space launch

Chinese polar orbiting meteorological satellite

FENGYUN 1C DEB was lifted into orbit during the mission ‘Long March 4B | Feng Yun 1C’, on board a Long March 4B space rocket.

The launch took place on May 10, 1999, 1:33 a.m. from Launch Complex 7.

For more information about the launch, click the button.

Launch to space Long March 4B | Feng Yun 1C
Long March 4B | Feng Yun 1C

Agency: N/A

Status: Launch Successful

Launch date: May 10, 1999, 1:33 a.m. UTC

Rocket: Long March 4B

Launch pad: Launch Complex 7

Location: Taiyuan Satellite Launch Center, People's Republic of China

...

Latest news about this satellite

There are no fresh news available about this satellite. Check back as we update our databases every day.


Newsletter sign-up

Weekly statistics, charts and insights to help you stay on top of the space industry.